#timestamp,LO_Frequency,Hit 
1616310015.7,286046998.9,N
1616310035.5,286046996.9,N
1616310055.3,286046999.0,N
1616310075.2,286046997.1,N
1616310095.0,286046997.0,N
1616310095.9,286046997.0,N
1616310115.7,286046999.6,N
1616310135.6,286046999.2,N
1616310155.4,286046999.1,N
1616310175.2,286046999.2,N
1616310195.1,286046996.9,N
1616310196.0,286046996.9,N
1616310215.8,286046996.6,N
1616310235.6,286046997.4,N
1616310255.5,286046997.5,N
1616310275.3,286046999.1,N
1616310295.1,286046997.4,N
1616310315.9,286046997.4,N
1616310335.7,286046995.1,P
1616310355.6,286046998.4,N
1616310375.4,286046997.0,N
1616310395.2,286046996.5,N
1616310415.0,286046996.9,N
1616310416.0,286046996.9,N
1616310435.8,286046996.9,P
1616310455.6,286047001.1,P
1616310475.5,286047000.8,N
1616310495.3,286047001.1,N
1616310515.1,286046998.2,N
1616310535.9,286047000.3,N
1616310555.7,286046999.8,N
1616310575.5,286047002.8,N
1616310595.3,286047000.6,N
1616310615.2,286047000.9,N
1616310635.0,286047001.0,N
1616310635.9,286047001.0,N
1616310655.7,286047000.7,N
1616310675.6,286047000.2,N
1616310695.4,286047000.5,N
1616310715.2,286047000.7,N
1616310735.1,286047001.2,N
1616310736.0,286047001.2,N
1616310755.8,286047000.9,N
1616310775.6,286046998.6,N
1616310795.5,286047000.9,N
1616310815.3,286047001.1,N
1616310835.1,286047000.2,N
1616310855.9,286047002.5,N
1616310875.7,286047003.2,N
1616310895.5,286047005.4,P
1616310915.4,286047005.3,N
1616310935.2,286047005.2,N
1616310955.1,286047006.4,P
1616310956.0,286047006.4,P
1616310975.8,286047005.7,P
1616310995.6,286047003.4,P
1616311015.5,286046999.0,N
1616311035.3,286046998.7,N
1616311055.1,286047001.2,N
1616311075.9,286046998.9,N
1616311095.7,286046998.2,N
1616311115.5,286046998.7,N
1616311135.3,286046998.2,N
1616311155.2,286047000.8,N
1616311175.0,286046999.3,N
1616311175.9,286046999.3,N
1616311195.7,286046996.7,N
1616311215.6,286046999.2,N
1616311235.4,286046998.8,N
1616311255.2,286046997.0,N
1616311275.1,286046996.6,N
1616311276.0,286046996.6,N
1616311295.8,286046996.9,N
1616311315.6,286046996.6,N
1616311335.5,286046996.9,N
1616311355.3,286046997.1,N
1616311375.1,286046999.0,N
1616311395.9,286046998.8,N
1616311415.7,286046996.6,N
1616311435.5,286046996.9,N
1616311455.4,286046999.4,N
1616311475.2,286046999.5,N
1616311495.0,286046997.7,N
1616311495.9,286046997.7,N
1616311515.8,286046997.4,N
1616311535.6,286046997.2,N
1616311555.4,286046997.7,N
1616311575.3,286046996.6,N
1616311595.1,286046997.8,N
1616311596.0,286046997.8,N
1616311615.8,286046994.9,P
1616311635.7,286046998.2,N
1616311655.5,286046998.5,N
1616311675.3,286046999.3,N
1616311695.2,286046996.5,N
1616311715.0,286046999.1,N
1616311715.9,286046999.1,N
1616311735.7,286046998.4,N
1616311755.6,286046996.6,N
1616311775.4,286046996.5,N
1616311795.2,286046997.0,N
1616311815.1,286046996.7,N
1616311816.0,286046996.7,N
1616311835.8,286046997.1,N
1616311855.6,286046996.5,N
1616311875.5,286046996.8,N
1616311895.3,286046996.9,N
1616311915.1,286046996.5,P
1616311935.9,286047001.0,N
1616311955.7,286047000.5,N
1616311975.5,286046998.9,N
1616311995.4,286047001.0,N
1616312015.2,286046998.1,N
1616312035.0,286047000.7,N
1616312035.9,286047000.7,N
1616312055.8,286046998.7,N
1616312075.6,286046998.6,N
1616312095.4,286046996.5,N
1616312115.3,286046999.2,N
1616312135.1,286046999.1,N
1616312136.0,286046999.1,N
1616312155.8,286046996.7,N
1616312175.7,286046999.1,N
1616312195.5,286046999.5,N
1616312215.3,286046996.9,N
1616312235.2,286046999.4,N
1616312255.9,286046997.7,N
1616312275.7,286046996.8,N
1616312295.6,286046997.7,N
1616312315.4,286046997.9,N
1616312335.2,286046997.7,N
1616312355.1,286046995.2,P
1616312356.0,286046995.2,N
1616312375.8,286046996.9,N
1616312395.6,286046997.8,N
1616312415.5,286046996.6,N
1616312435.3,286046997.4,N
1616312455.1,286046997.0,N
1616312475.9,286046999.3,N
1616312495.7,286046997.4,N
1616312515.5,286046997.0,N
1616312535.4,286046997.4,N
1616312555.2,286046995.4,P
1616312575.0,286046998.7,N
1616312575.9,286046998.7,N
1616312595.8,286046996.5,N
1616312615.6,286046998.8,N
1616312635.4,286046998.5,N
1616312655.3,286046999.5,N
1616312675.1,286046999.4,N
1616312676.0,286046999.4,N
1616312695.8,286046996.5,N
1616312715.7,286046997.0,N
1616312735.5,286046999.1,N
1616312755.3,286046996.9,N
1616312775.2,286046996.5,N
1616312795.9,286046996.6,N
1616312815.7,286046999.5,N
1616312835.5,286046996.8,N
1616312855.4,286046996.9,N
1616312875.2,286046997.2,N
1616312895.0,286046997.3,N
1616312895.9,286046997.3,N
1616312915.8,286046999.5,N
1616312935.6,286046997.7,N
1616312955.4,286046996.9,N
1616312975.3,286046995.0,P
1616312995.1,286047000.9,N
1616313015.9,286047001.1,N
1616313035.7,286046998.3,N
1616313055.5,286046998.8,N
1616313075.4,286046998.2,N
1616313095.2,286046999.2,N
1616313115.0,286046999.3,N
1616313115.9,286046999.3,N
1616313135.7,286046999.4,N
1616313155.6,286046999.4,N
1616313175.4,286046998.5,N
1616313195.2,286046999.1,N
1616313215.1,286046999.0,N
1616313216.0,286046999.0,N
1616313235.8,286046996.8,N
1616313255.6,286046996.7,N
1616313275.5,286046996.5,N
1616313295.3,286046996.6,N
1616313315.1,286046996.8,N
1616313335.9,286046999.3,N
1616313355.7,286046996.5,N
1616313375.5,286046997.2,N
1616313395.4,286046997.9,N
1616313415.2,286046997.3,N
1616313435.0,286046997.0,N
1616313435.9,286046997.0,N
1616313455.8,286046999.6,N
1616313475.6,286046998.0,N
1616313495.4,286046997.5,N
1616313515.3,286046997.6,N
1616313535.1,286046997.9,N
1616313536.0,286046997.9,N
1616313555.8,286046995.6,P
1616313575.7,286046998.1,N
1616313595.5,286046998.8,N
